NEXSAT-1

导读

NEXSAT-1(埃及全称NExSat-1)是一颗实验性遥感地球观测卫星,重量仅67公斤,结构精密。该卫星由埃及团队自主完成组装、集成和测试,属于埃及国家太空项目,旨在开发卫星技术,服务地球观测任务。 它于2024年2月3日,由中国捷龙三号运载火箭在广东阳江附近海域发射升空,这是捷龙三号首次承揽发射外国卫星,迈出了该火箭国际化服务的第一步。

Basic Information
目录编号:
58921
目录名称:
NEXSAT-1
国际标识:
2024-024E
轨道中心:
EARTH
卫星名称:
NEXSAT-1
卫星全名:
NEXSAT-1
卫星状态:
在轨 (已飞行954 天)
发射日期:
2024-02-03 UTC
国别 :
埃及 (EG)
星等 :
--
This satellite is enrolled in the Space Conjunction Data Service (SCDS) and the current flight risk assessment level is: No High Risk
Orbit Information
数据来源 国际轨道数据
星历时间: 2026-09-14T13:01:08+0800
4小时前
查看轨道信息
半长轴: 6840.395km
偏心率: 0.0009076
轨道倾角: 97.298°
近地点辐角 149.032°
升交点赤经 330.289°
平近点角 211.146°
近地点: 456.049km
远地点: 468.467km
周期: 93.839分钟
每日圈数: 15.345499
Detailed Information
使用方式:
暂无
2D Orbit Map
3D Orbit Map
Orbit Altitude Analysis Chart
Orbit Inclination Analysis Chart
Orbit Comprehensive Analysis Chart
View Comprehensive Chart
Conjunction Data List
Event ID Objects TCA Miss Dist (km) Collision Risk Probability Collision Risk Index (CRI) Action
CDM_260916-055405-892105-911721
NEXSAT-1 (58921)
2026-09-16T
05:54:01+0000
0.511 km
远距离
1.422079E-4 高风险 0.78
CDM_260915-072705-892106-625021
NEXSAT-1 (58921)
2026-09-15T
07:27:27+0000
0.977 km
远距离
2.878611E-5 中风险 0.64
CDM_260914-165305-892106-461321
NEXSAT-1 (58921)
2026-09-14T
16:53:48+0000
1.391 km
极远距离
8.505522E-6 低风险 0.54
CDM_260916-094005-892106-508121
NEXSAT-1 (58921)
2026-09-16T
09:40:23+0000
1.358 km
极远距离
8.487305E-6 低风险 0.54
CDM_260912-035505-853805-892122
NEXSAT-1 (58921)
2026-09-12T
03:55:00+0000
1.307 km
极远距离
7.295597E-6 低风险 0.52
CDM_260915-210905-794505-892122
NEXSAT-1 (58921)
2026-09-15T
21:09:13+0000
1.426 km
极远距离
7.17373E-6 低风险 0.52
CDM_260916-020105-892106-815821
NEXSAT-1 (58921)
2026-09-16T
02:01:36+0000
1.444 km
极远距离
4.465963E-6 低风险 0.48
CDM_260916-031905-892106-833721
NEXSAT-1 (58921)
2026-09-16T
03:19:34+0000
1.741 km
极远距离
4.142421E-6 低风险 0.47
CDM_260912-071505-892106-931621
NEXSAT-1 (58921)
2026-09-12T
07:15:19+0000
1.565 km
极远距离
3.268078E-6 低风险 0.45
CDM_260915-132505-892106-862221
NEXSAT-1 (58921)
2026-09-15T
13:25:53+0000
2.112 km
极远距离
2.350362E-6 低风险 0.42
Miss Distance Evolution Trend with All Objects Subscribe to Flight Safety Assessment
Collision Probability Evolution Trend with All Objects Subscribe to Flight Safety Assessment